Temperature
18 18 18 18 18 18 18 18 17 18 18 18 18 18 18 18 18 18 18 18 18 18 17 17 17 17 17 17 17 17 17 16 16 16 16 16 16 16 16 16 16 16 16
18 18 18 18 18 18 18 18 18 18 18 18 18 18 18 18 18 17 18 18 18 17 17 17 17 17 17 17 17 17 17 17 16 16 16 16 16 16 16 16 16 16 15
18 18 18 18 18 18 18 18 18 18 18 18 18 18 18 18 17 17 17 18 18 17 17 17 17 17 17 17 17 17 17 17 16 16 16 16 16 16 16 16 15 15 15
18 18 18 18 18 18 18 18 18 18 18 18 18 18 18 18 18 17 17 17 17 17 17 17 17 17 17 17 17 17 17 17 16 16 16 16 16 16 16 16 15 15 15
18 18 18 18 18 18 18 18 18 18 18 18 18 18 18 18 18 18 18 17 17 17 17 17 17 17 17 17 17 17 17 16 16 16 16 16 16 16 16 16 15 15 15
18 18 18 18 18 18 18 18 18 18 18 18 18 18 18 18 18 18 18 18 17 17 17 17 17 17 17 17 17 17 17 16 16 16 16 16 16 16 16 16 15 15 15
18 18 18 18 18 18 18 18 18 18 18 18 18 18 18 18 18 18 18 18 18 17 17 17 17 17 17 17 17 17 17 17 16 16 16 16 16 16 16 15 15 15 15
18 18 18 18 18 18 18 18 18 18 18 18 18 18 18 18 18 18 18 18 18 18 17 17 17 17 17 17 17 17 17 16 16 16 16 16 16 16 15 15 15 15 15
18 18 18 18 18 18 18 18 18 18 18 18 18 18 18 18 18 18 18 18 18 18 17 17 17 17 17 16 17 16 16 16 16 16 16 16 16 15 15 15 15 15 15
18 18 18 18 18 18 18 18 18 18 18 18 18 18 18 18 18 18 18 18 18 18 18 17 17 17 17 16 16 16 16 16 16 16 16 16 15 15 15 15 15 15 14
18 18 18 18 18 18 18 18 18 18 18 18 18 18 18 18 18 18 18 18 18 18 17 17 17 17 17 16 16 16 16 16 16 16 16 15 15 15 15 15 14 14 14
18 18 18 18 18 18 18 18 18 18 18 18 18 18 18 18 18 18 18 18 18 17 17 17 17 17 17 16 16 16 16 16 16 15 15 15 15 15 15 14 14 14 14
18 18 18 18 18 18 18 18 18 18 17 18 18 18 18 18 18 18 18 18 17 17 17 17 16 16 16 16 16 16 16 16 15 15 15 15 15 14 14 14 14 14 13
18 18 18 18 18 18 18 17 17 17 17 17 17 17 18 18 17 17 17 17 17 17 16 16 16 16 16 16 16 16 15 15 15 15 15 14 14 14 14 14 13 13 13
18 18 18 18 18 18 17 17 17 17 17 17 17 17 17 17 17 17 17 17 17 16 16 16 16 15 15 15 15 15 15 15 14 14 14 14 14 13 13 13 13 13 12
18 18 18 17 17 17 17 17 17 17 17 17 17 17 17 17 17 17 17 17 17 17 16 15 15 15 15 15 14 14 14 14 14 14 13 13 13 13 13 12 12 12 12
17 17 17 17 17 17 17 17 17 17 17 17 17 16 17 17 16 16 16 16 16 16 16 15 15 14 14 14 14 14 13 13 13 13 13 12 12 12 12 12 11 11 11
17 17 17 17 17 17 17 17 17 16 16 16 16 16 16 16 16 16 16 16 16 16 15 15 14 14 14 13 13 13 13 12 12 12 12 12 12 11 11 11 11 10 10
17 17 17 17 17 17 16 16 16 16 16 16 16 16 16 16 16 15 15 15 15 15 15 15 14 13 13 13 13 12 12 12 11 11 11 11 11 11 10 10 10 10 10
17 17 17 17 17 16 16 16 16 16 16 16 16 16 15 15 15 15 15 15 15 15 14 14 13 13 13 12 12 12 11 11 11 11 10 10 10 10 10 9 9 9 9
16 17 17 16 16 16 16 16 16 15 15 15 15 15 15 15 15 15 14 14 14 14 14 13 13 12 12 12 12 11 11 11 10 10 10 10 9 9 9 9 9 8 8
16 16 16 16 16 16 16 16 15 15 15 15 15 15 15 14 14 14 14 14 14 14 13 13 12 12 12 12 11 11 11 10 10 9 9 9 9 8 8 8 8 8 8
16 16 16 16 16 16 16 15 15 15 15 14 14 14 14 14 14 14 14 13 13 13 13 12 12 12 12 11 11 11 10 10 10 10 9 9 8 8 8 8 8 7 7
16 16 16 15 15 15 15 15 15 14 14 14 14 14 13 13 13 13 13 13 13 12 12 12 12 11 11 11 11 10 10 10 9 9 9 9 8 8 8 8 7 7 7
15 15 15 15 15 15 14 14 14 14 14 14 13 13 13 13 12 12 12 12 12 12 11 11 11 11 11 10 10 10 10 9 9 9 9 8 8 8 7 7 7 7 7
15 15 15 15 14 14 14 14 14 13 13 13 13 13 12 12 12 12 12 12 11 11 11 11 10 10 10 10 10 10 9 9 9 8 8 8 8 8 7 7 7 7 7
Wind_Speed
4 5 4 4 5 6 6 3 2 4 3 3 3 3 2 5 9 11 12 14 13 12 12 11 10 10 9 9 9 9 9 8 8 7 7 7 7 6 6 6 6 6 5
5 4 3 3 3 5 5 4 3 3 2 1 1 3 3 4 7 11 13 13 13 13 12 11 11 11 10 9 9 9 9 8 8 8 7 7 6 6 6 6 6 6 5
6 5 3 3 3 4 4 3 3 3 3 3 2 2 3 4 6 8 12 13 12 13 13 12 12 12 11 10 10 10 9 9 8 8 8 7 7 7 6 6 6 6 5
6 4 3 3 5 5 4 2 2 2 2 2 2 2 2 3 5 7 9 12 13 13 13 14 13 13 13 12 11 11 11 10 9 9 9 8 8 8 7 7 7 6 6
7 5 2 3 5 3 3 4 3 2 2 2 3 3 3 3 4 6 6 9 12 13 14 15 16 15 14 13 13 12 12 12 11 10 10 9 9 9 9 8 7 7 7
7 5 3 5 4 2 2 1 2 2 1 2 3 3 3 3 4 3 5 7 10 13 15 15 15 14 15 14 14 13 12 12 11 11 10 10 10 10 9 9 9 8 8
6 4 2 3 3 2 3 3 2 3 3 3 2 2 2 3 3 3 3 3 5 10 12 14 15 13 13 15 15 14 13 12 11 11 10 10 10 10 10 10 10 9 9
7 7 4 3 3 3 3 3 2 2 3 3 2 1 1 2 2 4 3 3 3 4 6 11 12 12 11 12 13 15 14 12 11 11 11 10 10 10 10 10 10 9 8
7 5 5 3 3 4 4 4 4 4 4 3 3 2 2 2 2 2 4 4 3 3 3 5 8 10 10 10 11 14 14 13 12 11 11 11 10 10 10 9 8 7 5
7 6 5 5 4 3 3 5 6 4 4 4 3 3 3 2 1 1 1 2 3 3 2 2 3 7 8 8 9 11 12 12 11 10 9 9 9 9 9 8 7 5 4
6 6 6 5 4 4 4 5 3 4 4 4 4 3 3 3 3 2 2 1 1 1 2 2 3 5 6 6 7 8 11 10 9 8 7 6 6 6 5 5 5 5 4
4 5 5 4 4 4 5 5 4 4 4 4 4 3 2 2 3 3 3 3 2 1 2 2 2 4 6 7 7 8 11 11 10 9 7 6 5 6 6 6 6 6 6
3 4 5 4 4 4 4 3 4 5 5 5 4 4 3 3 2 2 2 2 2 2 2 2 2 5 6 7 7 10 10 11 11 10 9 8 7 7 8 9 8 8 8
3 3 3 4 4 4 4 4 4 4 4 4 6 4 3 3 2 2 1 2 1 1 1 2 2 5 7 9 11 12 10 12 12 12 11 11 11 10 11 11 11 10 10
3 3 3 4 4 3 3 3 3 3 3 4 4 4 3 3 2 2 1 2 3 2 2 1 1 3 7 9 11 12 12 13 13 13 13 12 12 12 12 12 12 12 12
1 2 3 3 3 3 3 3 3 3 3 2 2 2 2 2 2 1 1 1 2 2 2 1 1 3 6 9 12 12 13 14 13 14 14 13 12 13 13 14 14 14 13
2 2 2 2 2 3 3 3 3 3 3 2 2 2 2 2 1 1 1 1 2 3 3 2 2 3 4 7 8 11 12 12 12 14 14 14 14 15 15 15 14 14 13
2 1 1 1 2 2 2 2 2 2 1 2 2 2 2 1 1 1 1 1 2 3 4 5 3 3 3 6 7 7 9 11 12 14 16 16 16 16 15 15 14 13 12
1 1 1 1 1 0 1 1 1 1 1 1 1 1 1 1 1 1 1 1 1 3 4 5 4 3 3 4 6 6 8 9 11 13 14 15 15 15 14 13 12 12 11
1 1 1 0 0 0 1 1 1 1 1 1 1 1 2 1 0 1 1 2 3 4 5 5 5 4 4 4 5 5 5 4 5 9 10 12 13 13 12 11 10 10 9
2 2 2 2 2 2 2 1 1 2 2 2 3 3 4 5 5 3 2 2 2 3 4 5 5 4 4 4 4 4 6 5 4 4 5 7 9 8 9 9 8 8 7
2 3 3 3 4 3 5 5 3 2 3 3 4 4 4 5 7 9 9 8 6 4 4 4 4 5 4 3 3 5 5 5 3 3 4 4 6 4 7 8 8 8 7
3 3 3 4 4 5 7 7 6 4 4 4 4 3 4 5 6 6 8 10 10 10 6 4 4 4 4 4 5 5 4 4 3 4 3 3 3 4 7 9 11 9 8
3 3 3 4 4 6 7 7 6 6 5 6 6 5 5 5 5 5 7 8 8 7 7 5 5 4 4 4 4 5 6 4 3 3 3 2 3 3 6 9 11 11 9
4 3 3 4 5 6 7 6 5 5 5 6 6 6 6 7 7 7 8 8 8 7 11 13 11 10 10 9 6 3 4 5 3 2 1 1 2 3 3 4 10 12 11
4 4 4 4 5 5 6 6 4 4 5 5 6 7 10 8 7 7 7 7 7 6 6 7 7 7 7 8 7 3 2 3 4 2 1 0 1 1 2 2 6 9 9
Wind_Direction
148 143 151 171 177 156 161 177 157 125 136 163 146 132 109 94 119 128 140 154 157 159 161 161 162 161 161 161 160 159 158 160 161 165 166 164 162 164 165 161 161 159 161
143 143 160 174 166 159 160 158 146 142 160 137 166 144 134 122 126 140 148 160 167 170 173 174 175 173 173 174 173 172 173 176 175 176 177 176 176 181 182 180 176 175 181
149 159 162 180 160 145 137 155 156 162 176 172 173 166 160 160 154 156 158 164 172 180 182 183 185 184 185 187 187 186 187 189 188 189 189 188 187 187 191 194 194 194 196
164 188 176 172 164 168 169 167 196 192 165 177 187 193 167 163 170 177 174 173 174 178 186 191 193 195 196 198 199 197 197 197 197 200 199 198 198 200 202 204 206 207 207
182 202 192 152 180 182 181 195 166 194 175 195 195 192 198 186 186 196 183 179 180 175 179 192 196 198 202 204 205 205 204 204 205 206 207 208 208 209 208 209 212 215 218
192 201 197 178 199 178 173 161 147 189 201 223 233 192 203 206 200 192 192 186 183 185 184 183 188 198 203 205 207 209 208 207 207 207 210 212 213 212 211 213 217 221 226
200 203 221 177 203 179 180 190 188 202 227 233 233 227 224 216 211 193 199 186 190 190 183 173 182 187 193 207 207 205 204 205 204 206 210 214 218 219 220 220 222 225 232
195 204 206 203 202 185 201 216 203 221 239 228 222 241 260 271 251 216 185 199 197 184 174 177 181 180 185 184 200 204 204 205 205 205 207 211 218 221 222 224 224 226 233
205 208 191 204 207 205 203 214 218 216 233 242 220 194 189 225 246 233 208 189 166 165 164 168 173 170 177 176 184 198 201 202 204 206 207 211 215 218 218 221 219 218 221
202 206 201 201 219 227 203 217 218 221 228 239 238 222 222 192 198 250 269 185 174 161 156 177 152 146 162 165 167 173 185 193 198 201 202 205 210 212 213 212 203 195 196
203 208 206 197 211 227 221 227 227 226 228 236 243 224 229 222 220 204 227 212 152 146 139 105 94 114 128 134 141 152 164 173 179 181 180 179 182 185 181 181 174 164 156
210 213 211 203 207 216 223 226 220 221 227 245 260 259 235 223 226 221 221 197 177 185 122 106 99 104 119 126 135 139 152 158 157 155 153 150 148 145 140 134 130 121 115
207 205 213 206 213 215 217 219 219 225 218 227 241 254 258 259 248 244 225 213 195 166 132 110 97 114 123 123 120 119 130 140 140 137 130 120 115 116 115 111 107 105 104
211 193 205 205 210 217 220 212 224 222 215 225 238 243 254 261 270 246 214 199 204 215 135 132 87 98 113 118 119 121 120 128 127 125 120 114 109 106 104 102 99 96 95
203 187 199 209 208 209 218 211 215 224 210 215 231 235 245 252 255 264 235 199 195 218 219 171 123 96 113 116 124 119 117 125 124 121 117 113 111 108 107 105 103 100 95
230 195 206 209 207 201 212 210 209 203 206 215 218 230 256 267 268 259 243 231 205 200 207 156 132 131 116 112 118 117 113 114 116 118 117 116 113 110 107 104 101 97 93
215 209 201 199 202 202 210 204 207 200 210 220 230 229 233 252 264 277 263 230 192 167 174 158 123 115 117 117 115 117 115 111 108 112 114 113 111 107 105 103 101 98 95
200 204 201 194 214 210 205 201 214 216 217 222 226 230 238 220 201 252 256 239 181 171 163 157 147 133 119 124 122 121 120 115 112 112 113 111 110 108 106 105 103 101 99
170 174 161 184 221 259 240 201 190 209 209 217 201 209 221 188 214 246 219 188 160 153 141 146 148 141 132 129 122 119 114 114 117 118 116 115 115 113 111 110 109 106 101
137 126 119 122 114 76 56 108 144 173 154 95 68 63 57 56 262 226 183 142 133 134 138 144 143 144 141 138 137 137 124 114 117 123 121 124 122 119 118 118 116 112 107
114 92 72 59 50 66 49 58 112 124 112 98 83 81 83 84 73 73 91 94 125 143 146 148 151 146 151 161 165 154 135 123 110 131 133 137 136 134 133 129 128 128 125
85 78 61 60 57 52 53 64 85 93 101 104 102 96 95 87 84 79 77 73 78 114 136 144 151 153 157 160 151 144 144 148 153 153 142 148 149 146 143 145 150 151 149
95 86 77 82 79 61 62 69 70 85 86 89 93 90 86 86 87 90 83 74 63 63 80 123 144 156 157 164 157 153 157 147 147 156 150 148 146 147 148 154 162 166 171
105 97 92 92 89 73 65 63 67 87 82 75 71 73 81 73 69 87 91 81 70 59 68 77 99 117 132 144 161 159 151 129 113 125 143 160 153 155 149 159 174 182 190
110 104 97 95 95 81 62 64 69 100 93 83 75 69 79 80 65 89 101 99 92 79 75 84 91 101 107 108 109 131 153 158 151 141 111 143 145 148 151 169 192 196 202
115 107 97 89 91 88 67 60 61 111 106 98 88 77 71 77 74 86 108 109 105 100 99 95 89 94 102 102 97 96 138 159 146 131 119 97 137 144 171 169 182 198 211
Height
1566 1568 1569 1570 1571 1572 1573 1574 1575 1577 1578 1579 1580 1580 1581 1581 1582 1581 1582 1583 1583 1584 1585 1585 1586 1587 1588 1589 1590 1591 1592 1593 1595 1596 1597 1597 1598 1599 1600 1600 1601 1601 1602
1566 1568 1569 1570 1572 1573 1574 1575 1576 1577 1578 1579 1580 1581 1581 1582 1582 1582 1582 1583 1583 1584 1584 1585 1586 1587 1588 1589 1590 1591 1592 1593 1594 1595 1596 1597 1598 1598 1599 1600 1600 1601 1602
1566 1568 1569 1570 1572 1573 1574 1575 1576 1577 1578 1579 1580 1581 1581 1582 1582 1582 1582 1582 1583 1583 1584 1585 1586 1586 1587 1588 1589 1590 1591 1592 1593 1594 1595 1596 1597 1598 1598 1599 1600 1600 1601
1566 1567 1569 1570 1572 1573 1574 1575 1576 1577 1578 1579 1579 1580 1581 1581 1581 1582 1582 1582 1582 1583 1583 1584 1585 1586 1587 1587 1588 1589 1590 1591 1593 1594 1594 1595 1596 1597 1597 1598 1598 1599 1600
1565 1567 1568 1570 1571 1572 1573 1574 1575 1576 1577 1578 1578 1579 1579 1580 1580 1581 1581 1582 1582 1582 1582 1583 1584 1584 1585 1586 1587 1588 1589 1590 1591 1592 1593 1594 1595 1595 1596 1597 1597 1598 1598
1565 1566 1567 1569 1570 1571 1572 1573 1574 1575 1576 1577 1578 1578 1578 1579 1579 1580 1580 1581 1581 1581 1581 1581 1582 1583 1584 1584 1585 1586 1587 1588 1589 1590 1591 1592 1593 1594 1594 1595 1595 1596 1596
1563 1565 1566 1567 1569 1570 1571 1572 1574 1574 1575 1576 1576 1576 1577 1577 1578 1578 1579 1579 1579 1580 1580 1580 1580 1581 1581 1582 1583 1584 1585 1586 1587 1588 1589 1590 1591 1592 1592 1593 1594 1594 1594
1561 1563 1565 1566 1567 1568 1569 1571 1572 1572 1573 1574 1575 1575 1575 1576 1575 1576 1576 1577 1578 1578 1579 1579 1578 1580 1580 1581 1581 1582 1583 1584 1585 1586 1587 1588 1589 1589 1590 1591 1592 1592 1592
1559 1561 1562 1564 1565 1566 1567 1568 1569 1570 1571 1572 1573 1574 1574 1574 1574 1575 1574 1575 1575 1577 1577 1578 1577 1578 1578 1578 1579 1580 1581 1582 1583 1584 1585 1586 1586 1587 1588 1589 1589 1590 1590
1557 1558 1559 1561 1562 1563 1564 1565 1566 1568 1569 1570 1570 1571 1572 1572 1573 1572 1573 1573 1573 1574 1575 1576 1576 1576 1576 1577 1577 1578 1579 1580 1581 1582 1583 1583 1584 1585 1585 1586 1586 1587 1587
1554 1555 1557 1558 1559 1560 1561 1562 1563 1564 1566 1567 1568 1569 1569 1570 1570 1571 1570 1571 1572 1572 1573 1573 1574 1574 1574 1574 1575 1576 1576 1577 1578 1579 1580 1581 1582 1582 1583 1583 1584 1584 1584
1551 1552 1554 1555 1556 1557 1558 1559 1560 1561 1562 1563 1565 1566 1566 1567 1567 1568 1568 1568 1569 1570 1570 1571 1571 1572 1572 1572 1573 1574 1574 1575 1576 1577 1578 1578 1579 1580 1580 1581 1581 1581 1581
1548 1549 1551 1552 1553 1554 1555 1556 1557 1558 1559 1560 1561 1562 1563 1564 1565 1565 1565 1566 1566 1567 1568 1568 1569 1569 1570 1570 1571 1571 1571 1573 1574 1575 1575 1576 1577 1577 1578 1578 1578 1579 1579
1545 1546 1548 1548 1549 1550 1551 1552 1553 1554 1555 1557 1558 1559 1560 1560 1561 1562 1562 1563 1564 1565 1565 1566 1566 1567 1567 1568 1568 1569 1569 1570 1571 1572 1573 1573 1574 1575 1575 1575 1576 1576 1576
1543 1544 1545 1545 1546 1547 1548 1549 1550 1551 1552 1553 1554 1556 1556 1557 1558 1558 1559 1560 1561 1561 1562 1563 1564 1564 1564 1565 1566 1567 1567 1568 1569 1570 1570 1571 1572 1573 1573 1573 1573 1573 1573
1540 1541 1542 1543 1543 1544 1545 1546 1547 1548 1549 1550 1551 1552 1553 1553 1554 1555 1555 1556 1557 1558 1559 1560 1560 1561 1562 1562 1563 1564 1565 1566 1567 1568 1568 1569 1570 1570 1570 1570 1571 1571 1571
1538 1538 1539 1540 1541 1541 1542 1543 1544 1545 1546 1547 1548 1549 1549 1550 1550 1551 1552 1552 1553 1554 1555 1556 1557 1558 1559 1560 1561 1562 1563 1563 1564 1566 1566 1567 1568 1568 1568 1568 1569 1569 1569
1536 1536 1537 1538 1538 1539 1540 1540 1541 1542 1543 1543 1544 1545 1546 1546 1547 1547 1548 1548 1549 1550 1551 1552 1553 1555 1557 1558 1558 1560 1560 1561 1562 1564 1565 1565 1566 1566 1566 1567 1567 1567 1567
1534 1535 1535 1535 1536 1536 1537 1538 1538 1539 1540 1541 1541 1542 1542 1543 1543 1544 1544 1545 1546 1546 1547 1548 1550 1552 1554 1555 1556 1558 1558 1559 1561 1562 1563 1564 1565 1565 1565 1565 1565 1565 1565
1532 1533 1533 1534 1534 1535 1535 1535 1536 1537 1537 1538 1538 1539 1539 1540 1540 1541 1541 1542 1542 1543 1544 1545 1546 1548 1551 1552 1554 1555 1556 1558 1559 1560 1561 1562 1563 1564 1564 1564 1564 1564 1564
1532 1532 1532 1532 1533 1532 1533 1533 1534 1534 1535 1535 1536 1536 1536 1537 1537 1538 1539 1539 1540 1540 1541 1542 1544 1546 1548 1549 1551 1552 1554 1556 1558 1559 1560 1561 1562 1562 1563 1563 1564 1564 1563
1531 1531 1531 1531 1531 1531 1531 1531 1532 1533 1533 1533 1534 1534 1534 1535 1535 1536 1537 1537 1538 1538 1539 1540 1541 1543 1545 1547 1548 1550 1551 1554 1555 1558 1558 1559 1560 1561 1562 1562 1563 1563 1562
1530 1530 1530 1530 1530 1530 1530 1531 1531 1531 1531 1532 1532 1533 1533 1533 1534 1534 1535 1536 1536 1537 1538 1539 1539 1540 1542 1543 1546 1547 1549 1551 1553 1555 1557 1558 1559 1560 1561 1562 1562 1562 1562
1528 1529 1529 1529 1529 1530 1530 1530 1530 1531 1531 1531 1531 1532 1532 1532 1533 1533 1534 1534 1535 1536 1537 1537 1538 1539 1541 1542 1544 1546 1548 1550 1552 1554 1556 1557 1558 1559 1560 1561 1561 1561 1561
1527 1528 1528 1529 1529 1529 1530 1530 1530 1530 1530 1530 1531 1531 1532 1532 1533 1533 1533 1533 1534 1535 1536 1537 1538 1539 1540 1542 1543 1545 1547 1549 1550 1552 1554 1555 1556 1557 1558 1559 1560 1560 1560
1527 1527 1527 1528 1528 1528 1529 1530 1530 1530 1530 1530 1530 1531 1531 1532 1532 1533 1534 1534 1534 1535 1536 1537 1538 1539 1540 1541 1542 1544 1545 1547 1548 1550 1552 1554 1555 1556 1557 1557 1558 1558 1559